FREGAT DEB, 45641

Orbit data source: Space-Track

FREGAT DEB, 45641 is space debris in LEO originally from a launch on Mon, 18 Jul 2011 UTC launched from the Tyuratam Missile And Space Complex (TTMTR). Debris objects in space refer to the collection of defunct objects orbiting the Earth. Examples of debris include non-operational satellites, rocket bodies, and fragments generated from explosions, collisions, or faulty payload assembly.

Loading next visibility...
FREGAT DEB details
Identifier
45641, 2011-037AH
Orbit
LEO
Last TLE update11 hours ago
Origin
Flag of CISVVKO VKS (CIS)
ManufacturerLavochkin
MissionSpacecraft
Bus & MotorUnknown
MassUnknown
Launch date (UTC)
2011-07-18 (13 years ago)
Launch vehicleUnknown
Launch site
Tyuratam Missile And Space Complex (TTMTR)
Object type
Payload
Rocket body
Debris
Shape & HBRUnknown
Radar Cross SectionMedium (>0.1 m² and <1 m²)

Expand to show TLE details & history

TLE from 11 hours ago
0 FREGAT DEB
1 45641U 11037AH  24360.99731322  .00197986  00000-0  10206-1 0  9993
2 45641  51.5879 260.4997 0801194 328.5111  27.0116 13.85859054208238
Epoch: 2024-12-25T23:56Z
Definitive object data (Epoch: 2024-12-25T23:56:07.862Z)
Latitude-0°
Longitude166.48391°
Altitude432.142 km
Speed7.916 km/s
True Right ascension17h 21m 59s
True Declination0° 00' 00"
Sunlit
Object was in daylight at TLE epoch
Visualization TLE readout
Latitude33.84952°
Longitude-163.28749°
Altitude753.607 km
Speed7.579 km/s
Apparent Right ascension20h 30m 10s
Apparent Declination0° 39' 41"
Sunlit
Object is in daylight
Visualization observer readout
Local Sidereal Time09:52:09
Azimuth30.593° NE
Elevation-46.535°
Doppler factor1
Orbital elements
Apogee altitude1,530.282 km
Perigee altitude357.045 km
Semi-major axis7,321.8 km
Eccentricity0.0801194
Inclination51.5879°
RAAN260.4997°
Arg. of periapsis328.5111°
True anomaly31.58313°
Mean anomaly27.0116°
Eccentric anomaly29.25496°
Mean motion3.46431 °/min
BSTAR0.010206
Orbital period103.92 mins
Loading maneuver chart data...
Loading historical data...
Loading historical data...
Loading historical data...
Loading historical data...
Loading historical data...
Loading historical data...
Loading historical data...

FREGAT DEB Visibility forecast

Observer location: undefined°, undefined

Span
Click to sort rows by Start time (UTC) header in descending order
Start Az.
Max El. time (UTC)
Max El. Az.
Max El.
End time (UTC)
End Az.
7 mins2024-12-26 19:06:57.850Z171.778° S2024-12-26 19:09:57.850Z123.991° SE22.665°2024-12-26 19:13:57.850Z74.972° E
10 mins2024-12-26 20:53:57.850Z247.95° W2024-12-26 20:57:57.850Z336.228° NNW42.693°2024-12-26 21:03:57.850Z50.008° ENE
10 mins2024-12-26 22:43:57.850Z300.765° NW2024-12-26 22:47:57.850Z357.155° N29.514°2024-12-26 22:53:57.850Z52.359° ENE
13 mins2024-12-27 00:32:57.850Z314.732° NW2024-12-27 00:37:57.850Z10.395° NNE32.127°2024-12-27 00:45:57.850Z79.559° E
15 mins2024-12-27 02:21:57.850Z310.82° NW2024-12-27 02:27:57.850Z14.027° NNE43.816°2024-12-27 02:36:57.850Z118.676° SE
15 mins2024-12-27 04:10:57.850Z290.723° WNW2024-12-27 04:16:57.850Z236.068° WSW34.083°2024-12-27 04:25:57.850Z164.458° S
|